Regional Weather Roundup
Issued by NWS Kansas City/Pleasant Hill, MO

Home | Current Version | Previous Version | Text Only | Print | Product List | Glossary On
Versions: 1 2 3 4 5 6 7 8 9 10 11 12 13 14 15 16 17 18 19 20 21 22 23 24 25 26 27 28 29 30 31 32 33 34 35 36 37 38 39 40 41 42 43 44 45 46 47 48 49 50
000
ASUS43 KEAX 032211
RWREAX

WEATHER ROUNDUP FOR EASTERN KANSAS AND NORTHWEST MISSOURI
NATIONAL WEATHER SERVICE KANSAS CITY/PLEASANT HILL MO
500 PM CDT SUN MAY 03 2015

KSZ040-057-103>105-MOZ028-029-037-043-032300-
...KANSAS CITY METROPOLITAN AREA...

CITY           SKY/WX    TMP DP  RH WIND       PRES   REMARKS
K.C. INTL      PTSUNNY   80  59  48 S16G31    29.81S
K.C. DOWNTOWN  PTSUNNY   83  57  41 S18G29    29.81F
LEES SUMMIT    PTSUNNY   80  59  48 S14G22    29.85F
OLATHE - IXD   PTSUNNY   82  58  43 S14G26    29.84F
OLATHE - OJC   PTSUNNY   80  58  46 SW20G28   29.84S
LAWRENCE       PTSUNNY   82  58  43 S13G23    29.80F

$$

MOZ001>008-011>017-020>025-030>033-038>040-044>046-053-054-032300-
...NORTHERN AND CENTRAL MISSOURI...

CITY           SKY/WX    TMP DP  RH WIND       PRES   REMARKS
ST. JOSEPH     PTSUNNY   84  58  40 S20       29.79S
MOSBY            N/A     81  55  41 S12G17    29.82S
WARRENSBURG    PTSUNNY   79  55  44 S18       29.86R
WHITEMAN AFB   PTSUNNY   79  58  48 SW16G31   29.86R
CLINTON        PTSUNNY   79  59  50 S10G20    29.90S
SEDALIA        PTSUNNY   83  58  42 SW15G21   29.89S
WARSAW         NOT AVBL
MARSHALL       MOSUNNY   84  57  39 S18G28    29.87F HAZE
CHILLICOTHE      N/A     83  59  44 S16G24    29.82F
MOBERLY        MOSUNNY   84  52  32 S15G24    29.88S
KIRKSVILLE     PTSUNNY   81  58  45 S17G30    29.86S

$$

MOZ041-047>049-056>058-063>065-088>090-097-032300-
...EASTERN AND SOUTHERN MISSOURI...

CITY           SKY/WX    TMP DP  RH WIND       PRES   REMARKS
ST. LOUIS INTL PTSUNNY   84  47  27 S17G23    29.94F
SPIRIT OF STL  PTSUNNY   81  47  30 SW8       29.92S
COLUMBIA       CLOUDY    80  55  42 S15G22    29.89F
JEFFERSON CITY PTSUNNY   83  50  31 S13G21    29.88F
MEXICO         CLOUDY    82  59  44 S14       29.90F
HANNIBAL       MOSUNNY   81  50  34 S12G20    29.89F
ROLLA          MOSUNNY   79  54  41 S13G26    29.93F
LEBANON        SUNNY     81  52  36 S12G18    29.95F
OSAGE BEACH    MOSUNNY   84  52  32 S15G21    29.92S
SPRINGFIELD    PTSUNNY   78  56  46 S14       29.94F
BRANSON        PTSUNNY   81  52  36 S10       29.98F
NEVADA         PTSUNNY   79  59  50 S21G28    29.91F
JOPLIN         PTSUNNY   78  57  48 S15G28    29.92F
WEST PLAINS    MOSUNNY   78  52  40 S14G20    30.00F

$$

IAZ060-094-KSZ022-034>040-054-083-096-NEZ052-066-093-032300-
...KANSAS...SOUTHEAST NEBRASKA AND IOWA...

CITY           SKY/WX    TMP DP  RH WIND       PRES   REMARKS
TOPEKA         PTSUNNY   85  57  38 S18G26    29.78F
MANHATTAN      MOSUNNY   86  57  37 S18       29.76F
EMPORIA        MOSUNNY   83  53  35 S24G33    29.81F
CHANUTE        PTSUNNY   80  58  46 S18G30    29.87F
WICHITA        PTSUNNY   82  54  37 S21G33    29.82F
OMAHA          PTSUNNY   81  61  50 SE6       29.72F
LINCOLN        TSTM      78  60  53 SE9       29.72F
FALLS CITY     MOSUNNY   84  57  39 SW18G25   29.77S
LAMONI         MOSUNNY   83  58  42 S21       29.79F
DES MOINES     PTSUNNY   83  57  41 SW14G24   29.77F

$$



USA.gov is the U.S. government's official web portal to all federal, state and local government web resources and services.